Stations météo

Publicité
Montelimar, France (7577): Température de l'air & dewpoint: 20.06.2017 07:00:00 - 26.06.2017 07:00:00 (CEST)Montelimar, France (7577): Température de l'air 5cm: 20.06.2017 07:00:00 - 26.06.2017 07:00:00 (CEST)Montelimar, France (7577): Température de l'air -20cm & Température de l'air -100cm: 20.06.2017 07:00:00 - 26.06.2017 07:00:00 (CEST)Montelimar, France (7577): Vitesse du vent & gusts: 20.06.2017 07:00:00 - 26.06.2017 07:00:00 (CEST)Montelimar, France (7577): Direction du vent: 20.06.2017 07:00:00 - 26.06.2017 07:00:00 (CEST)Montelimar, France (7577): reduced air pressure: 20.06.2017 07:00:00 - 26.06.2017 07:00:00 (CEST)Montelimar, France (7577): visibility: 20.06.2017 07:00:00 - 26.06.2017 07:00:00 (CEST)Montelimar, France (7577): Ensoleillement: 20.06.2017 07:00:00 - 26.06.2017 07:00:00 (CEST)Montelimar, France (7577): Quantités de précipitations: 20.06.2017 07:00:00 - 26.06.2017 07:00:00 (CEST)
Date & Time tt [°C] td [°C] tt 5cm [°C] tt -20cm [°C] tt -100cm [°C] ff [km/h] ff [knt] fx [km/h] fx [knt] dd ppp [hPa] vv [km] sd [min] rr [mm]
26.06.2017 07:00:00 20,9 14,1 19,9 26,5 22,9 16 8 26 14 NNE 1012,1 20 36 0,0
26.06.2017 06:00:00 20,6 13,8 19,9 26,7 22,9 16 9 26 14 NNE 1012,1 20 0 0,0
26.06.2017 05:00:00 21,0 13,4 20,3 26,9 22,9 16 9 26 14 NNE 1012,4 20 0 0,0
26.06.2017 04:00:00 21,3 13,0 20,0 27,1 22,9 14 8 23 12 NE 1012,9 20 0 0,0
26.06.2017 03:00:00 21,0 12,7 18,8 27,3 22,9 14 7 21 11 NE 1013,4 20 0 0,0
26.06.2017 02:00:00 21,5 12,9 19,0 27,5 22,9 13 7 18 10 NE 1013,6 20 0 0,0
26.06.2017 01:00:00 22,1 12,6 19,1 27,6 22,9 5 3 12 7 ESE 1014,3 20 0 0,0
26.06.2017 00:00:00 21,9 13,3 18,4 27,7 22,9 6 3 13 7 N 1014,0 20 0 0,0
25.06.2017 23:00:00 23,0 12,6 19,4 27,7 22,9 6 4 16 9 NNE 1014,1 20 0 0,0
25.06.2017 22:00:00 25,3 12,5 22,7 27,7 22,9 4 2 16 9 N 1013,9 20 0 0,0
25.06.2017 21:00:00 26,8 12,8 25,5 27,6 22,8 10 5 32 17 NNE 1013,1 20 49 0,0
25.06.2017 20:00:00 28,3 12,2 31,1 27,5 22,9 18 10 39 21 N 1013,1 20 60 0,0
25.06.2017 19:00:00 29,0 12,4 33,5 27,3 22,9 18 10 37 20 NNE 1013,4 20 60 0,0
25.06.2017 18:00:00 29,5 13,3 34,6 27,0 22,8 16 9 39 21 NNE 1013,6 20 60 0,0
25.06.2017 17:00:00 29,3 13,1 34,7 26,8 22,8 22 12 35 19 NNE 1014,1 20 60 0,0
25.06.2017 16:00:00 29,1 13,3 34,6 26,7 22,8 21 11 39 21 NNE 1014,7 20 60 0,0
25.06.2017 15:00:00 28,5 13,2 33,7 26,5 22,8 24 13 41 22 NNE 1015,2 20 60 0,0
25.06.2017 14:00:00 27,6 14,2 33,2 26,6 22,8 26 14 42 23 NNE 1015,9 20 60 0,0
25.06.2017 13:00:00 26,8 14,5 31,1 26,6 22,9 22 12 48 26 NNE 1016,6 20 60 0,0
25.06.2017 12:00:00 25,9 14,4 30,4 26,7 22,7 27 15 48 26 NNE 1016,5 20 60 0,0
25.06.2017 11:00:00 24,7 15,1 28,5 26,9 22,8 27 14 46 25 NNE 1016,6 20 60 0,0
25.06.2017 10:00:00 23,8 15,6 27,9 27,1 22,8 24 13 39 21 NNE 1016,5 20 60 0,0
25.06.2017 09:00:00 23,3 17,3 25,4 27,3 22,8 16 9 27 15 NNE 1016,4 20 60 0,0
25.06.2017 08:00:00 21,3 16,7 20,0 27,5 22,7 14 8 26 14 NNE 1016,3 20 38 0,0
25.06.2017 07:00:00 20,6 16,0 19,5 27,7 22,7 17 9 25 14 N 1016,3 20 0 0,0
25.06.2017 06:00:00 20,5 16,7 19,8 28,0 22,7 10 5 22 12 N 1016,4 20 0 0,0
25.06.2017 05:00:00 20,6 16,6 19,8 28,2 22,7 13 7 30 16 NNE 1016,4 20 0 0,0
25.06.2017 04:00:00 20,5 18,1 19,6 28,4 22,7 15 8 28 15 NNE 1015,9 20 0 0,0
25.06.2017 03:00:00 20,6 18,5 19,7 28,6 22,7 14 8 31 17 N 1016,4 19 0 0,0
25.06.2017 02:00:00 20,7 18,8 20,0 28,8 22,7 8 5 32 18 N 1016,9 17 0 0,6
25.06.2017 01:00:00 22,2 19,0 20,6 28,9 22,7 12 6 24 13 N 1017,0 12 0 3,2
25.06.2017 00:00:00 23,7 18,1 22,5 29,1 22,7 6 4 14 8 N 1015,7 20 0 0,0
24.06.2017 23:00:00 23,5 17,3 22,7 29,1 22,7 8 5 24 13 NNE 1015,2 20 0 0,0
24.06.2017 22:00:00 24,2 16,5 22,1 29,1 22,6 14 7 32 17 N 1014,2 20 0 0,0
24.06.2017 21:00:00 25,4 18,8 22,2 29,1 22,7 8 4 24 13 NNE 1014,3 19 0 0,4
24.06.2017 20:00:00 28,2 17,1 28,0 29,0 22,7 14 7 25 14 N 1013,7 20 0 0,0
24.06.2017 19:00:00 29,0 17,2 29,0 28,7 22,6 10 5 22 12 N 1013,5 20 0 0,0
24.06.2017 18:00:00 30,3 17,0 31,6 28,5 22,6 10 6 29 15 N 1013,6 20 1 0,0
24.06.2017 17:00:00 32,3 17,0 34,9 28,2 22,6 16 9 34 19 N 1013,8 20 58 0,0
24.06.2017 16:00:00 32,3 17,0 38,6 28,0 22,6 22 12 35 19 NNE 1014,4 20 60 0,0
24.06.2017 15:00:00 31,8 17,7 34,4 27,8 22,6 18 10 35 19 NNE 1015,1 20 60 0,0
24.06.2017 14:00:00 30,0 17,5 34,1 27,6 22,6 22 12 40 22 NNE 1015,9 20 54 0,0
24.06.2017 13:00:00 29,8 17,9 35,8 27,6 22,6 23 12 42 23 NNE 1016,4 20 60 0,0
24.06.2017 12:00:00 28,9 18,4 34,2 27,6 22,6 24 13 44 24 NNE 1016,9 19 60 0,0
24.06.2017 11:00:00 27,9 18,6 33,1 27,7 22,5 23 12 42 23 NNE 1017,4 20 60 0,0
24.06.2017 10:00:00 26,8 18,6 31,1 27,8 22,5 25 14 44 24 NNE 1017,8 19 60 0,0
24.06.2017 09:00:00 25,7 18,6 28,7 28,0 22,6 20 11 46 25 N 1018,1 19 60 0,0
24.06.2017 08:00:00 25,3 18,5 24,7 28,1 22,5 14 8 30 16 N 1018,0 20 51 0,0
24.06.2017 07:00:00 24,6 17,8 24,0 28,3 22,5 15 8 39 21 N 1017,9 20 0 0,0
24.06.2017 06:00:00 24,6 18,1 24,0 28,5 22,5 14 8 35 19 N 1017,8 20 0 0,0
24.06.2017 05:00:00 25,1 18,1 24,5 28,6 22,5 17 9 40 21 N 1017,8 20 0 0,0
24.06.2017 04:00:00 25,3 18,7 24,8 28,8 22,5 19 11 37 20 N 1017,9 20 0 0,0
24.06.2017 03:00:00 25,9 18,8 25,3 28,9 22,5 20 11 35 19 N 1018,2 20 0 0,0
24.06.2017 02:00:00 26,2 18,8 25,5 29,0 22,5 18 10 38 20 N 1018,1 20 0 0,0
24.06.2017 01:00:00 26,7 19,6 25,8 29,1 22,5 18 10 38 20 N 1017,9 20 0 0,0
24.06.2017 00:00:00 26,6 19,7 25,6 29,2 22,4 11 6 28 15 NNE 1017,9 20 0 0,0
23.06.2017 23:00:00 26,2 19,6 25,4 29,2 22,5 16 8 27 15 N 1017,4 20 0 0,0
23.06.2017 22:00:00 26,6 20,2 25,9 29,2 22,4 12 7 31 17 N 1016,4 17 0 0,0
23.06.2017 21:00:00 27,8 19,8 26,9 29,1 22,4 7 4 29 16 N 1016,1 19 1 0,0
23.06.2017 20:00:00 30,3 19,7 30,6 29,0 22,4 16 8 25 13 NNE 1015,7 20 25 0,0
23.06.2017 19:00:00 30,1 20,1 30,5 28,8 22,4 8 4 19 11 NNE 1015,4 20 0 0,0
23.06.2017 18:00:00 31,7 21,2 31,0 28,5 22,4 4 2 10 6 NNE 1015,1 17 0 0,0
23.06.2017 17:00:00 34,9 18,9 36,7 28,1 22,4 4 2 6 4 WNW 1015,2 20 0 0,0
23.06.2017 16:00:00 36,3 15,4 40,6 27,8 22,3 6 3 11 6 SSE 1015,7 20 53 0,0
23.06.2017 15:00:00 35,8 16,5 42,6 27,6 22,4 4 2 9 5 NNW 1016,2 20 60 0,0
23.06.2017 14:00:00 33,5 20,6 36,8 27,5 22,4 3 1 9 5 ESE 1016,9 19 26 0,0
23.06.2017 13:00:00 31,7 20,9 37,4 27,3 22,3 4 2 16 8 WNW 1017,4 18 55 0,0
23.06.2017 12:00:00 29,7 20,8 34,1 27,3 22,3 4 2 9 5 W 1018,0 17 60 0,0
23.06.2017 11:00:00 27,2 21,2 27,7 27,4 22,3 5 3 14 8 SSE 1018,5 13 58 0,0
23.06.2017 10:00:00 25,7 21,4 30,1 27,5 22,3 4 2 10 5 SW 1018,8 10 56 0,0
23.06.2017 09:00:00 23,8 21,1 24,8 27,6 22,3 4 2 10 5 S 1018,6 7 18 0,0
23.06.2017 08:00:00 22,7 20,8 22,7 27,8 22,3 4 2 7 4 S 1018,4 7 6 0,0
23.06.2017 07:00:00 21,8 20,1 20,5 28,0 22,3 0 0 6 3 N 1018,1 7 0 0,0
23.06.2017 06:00:00 21,8 20,1 20,8 28,1 22,2 0 0 5 3 N 1017,7 5 0 0,0
23.06.2017 05:00:00 22,4 20,3 20,8 28,3 22,3 0 0 8 5 N 1017,6 7 0 0,0
23.06.2017 04:00:00 22,7 20,8 21,7 28,5 22,2 6 4 11 6 S 1017,5 7 0 0,0
23.06.2017 03:00:00 23,0 20,1 22,1 28,6 22,2 4 2 8 4 S 1017,7 13 0 0,0
23.06.2017 02:00:00 23,8 20,5 22,4 28,7 22,2 3 2 9 5 S 1017,8 11 0 0,0
23.06.2017 01:00:00 24,6 20,7 23,7 28,8 22,2 5 3 11 6 SSW 1018,1 14 0 0,0
23.06.2017 00:00:00 25,2 20,5 24,0 28,8 22,2 5 3 8 5 S 1017,9 19 0 0,0
22.06.2017 23:00:00 26,3 20,2 25,2 28,8 22,2 4 2 20 11 WSW 1017,5 20 0 0,0
22.06.2017 22:00:00 27,3 19,9 26,5 28,7 22,2 9 5 22 12 S 1017,1 20 0 0,0
22.06.2017 21:00:00 28,7 20,7 28,6 28,6 22,2 12 7 29 16 S 1016,5 20 25 0,0
22.06.2017 20:00:00 30,1 21,5 30,5 28,4 22,2 16 9 31 17 S 1016,0 20 29 0,0
22.06.2017 19:00:00 31,8 20,7 34,7 28,1 22,1 9 5 22 12 S 1015,5 17 55 0,0
22.06.2017 18:00:00 32,4 21,3 33,6 27,9 22,2 12 6 22 12 SW 1015,5 18 19 0,0
22.06.2017 17:00:00 32,1 21,3 35,3 27,6 22,1 10 5 25 14 SW 1015,8 19 0 0,0
22.06.2017 16:00:00 32,3 20,5 36,0 27,4 22,1 16 8 29 16 S 1015,8 19 46 0,0
22.06.2017 15:00:00 31,4 20,7 35,6 27,1 22,1 11 6 24 13 S 1016,0 19 47 0,0
22.06.2017 14:00:00 30,8 20,7 36,9 27,0 22,1 14 8 26 14 S 1016,8 15 60 0,0
22.06.2017 13:00:00 29,0 20,4 34,9 27,0 22,1 14 8 22 12 S 1017,4 15 60 0,0
22.06.2017 12:00:00 27,1 20,2 32,8 27,1 22,1 13 7 23 12 S 1017,8 11 60 0,0
22.06.2017 11:00:00 25,0 20,0 25,8 27,2 22,1 11 6 19 10 S 1018,4 10 17 0,0
22.06.2017 10:00:00 23,1 19,5 23,6 27,4 22,0 11 6 23 12 SSW 1018,6 8 0 0,0
22.06.2017 09:00:00 22,4 19,8 22,8 27,5 22,0 10 5 21 11 S 1018,4 8 0 0,0
22.06.2017 08:00:00 22,1 20,0 22,2 27,7 22,0 8 4 16 9 SSW 1017,8 8 0 0,0
22.06.2017 07:00:00 21,7 20,0 20,4 27,9 22,0 6 4 16 8 SSW 1017,3 8 0 0,0
22.06.2017 06:00:00 21,2 19,5 20,3 28,1 22,0 4 2 9 5 SSW 1016,9 7 0 0,0
22.06.2017 05:00:00 21,7 19,8 21,0 28,2 21,9 7 4 17 9 S 1016,6 9 0 0,0
22.06.2017 04:00:00 22,1 19,8 21,3 28,4 22,0 5 3 12 6 S 1016,4 11 0 0,0
22.06.2017 03:00:00 22,7 20,2 22,1 28,5 21,9 8 4 14 8 S 1016,4 12 0 0,0
22.06.2017 02:00:00 23,3 20,2 22,2 28,6 21,9 5 3 11 6 S 1016,4 13 0 0,0
22.06.2017 01:00:00 24,1 20,4 23,1 28,7 21,9 5 3 18 10 SW 1016,3 16 0 0,0
22.06.2017 00:00:00 25,2 20,7 24,5 28,8 21,9 11 6 19 10 S 1016,2 18 0 0,0
21.06.2017 23:00:00 25,8 20,6 24,8 28,8 21,9 6 3 16 9 S 1016,0 19 0 0,0
21.06.2017 22:00:00 27,3 20,6 26,4 28,7 21,9 8 4 20 11 S 1015,9 20 0 0,0
21.06.2017 21:00:00 28,7 20,7 28,3 28,5 21,9 13 7 29 16 S 1015,3 20 0 0,0
21.06.2017 20:00:00 31,0 20,6 30,9 28,2 21,9 4 2 17 9 SSW 1014,0 20 10 0,0
21.06.2017 19:00:00 32,2 19,8 35,5 28,0 21,8 9 5 23 12 SSW 1013,7 20 60 0,0
21.06.2017 18:00:00 32,5 20,1 38,4 27,7 21,9 11 6 26 14 SSW 1013,8 20 60 0,0
21.06.2017 17:00:00 32,3 19,5 36,4 27,4 21,9 10 6 19 10 WSW 1013,9 20 60 0,0
21.06.2017 16:00:00 31,9 19,5 36,5 27,1 21,8 12 6 25 13 WSW 1014,1 20 60 0,0
21.06.2017 15:00:00 31,1 18,5 36,2 26,9 21,8 9 5 19 11 SSW 1014,6 20 60 0,0
21.06.2017 14:00:00 30,2 18,3 36,0 26,7 21,8 11 6 23 12 S 1015,3 20 60 0,0
21.06.2017 13:00:00 29,2 18,0 35,5 26,6 21,8 11 6 20 11 SSW 1016,1 20 60 0,0
21.06.2017 12:00:00 27,8 18,2 33,8 26,6 21,8 12 6 21 11 S 1016,5 20 60 0,0
21.06.2017 11:00:00 26,1 18,5 32,3 26,6 21,8 12 7 21 12 S 1016,5 20 60 0,0
21.06.2017 10:00:00 24,8 19,0 29,4 26,7 21,7 11 6 19 10 S 1016,5 19 60 0,0
21.06.2017 09:00:00 23,6 18,9 27,4 26,9 21,7 11 6 19 10 S 1016,5 19 60 0,0
21.06.2017 08:00:00 21,9 18,9 21,1 27,1 21,7 5 3 10 5 S 1016,4 17 57 0,0
21.06.2017 07:00:00 20,3 18,2 18,0 27,3 21,7 5 3 8 4 S 1016,3 16 0 0,0
21.06.2017 06:00:00 19,9 17,5 18,3 27,5 21,7 0 0 8 5 N 1016,2 8 0 0,0
21.06.2017 05:00:00 20,5 18,1 19,3 27,6 21,7 4 2 8 4 SSW 1016,2 20 0 0,0
21.06.2017 04:00:00 21,0 18,0 19,8 27,8 21,7 3 2 8 4 SSW 1016,5 20 0 0,0
21.06.2017 03:00:00 21,6 17,8 20,3 27,9 21,6 3 2 10 5 SSW 1017,0 20 0 0,0
21.06.2017 02:00:00 22,2 17,6 20,4 28,1 21,7 3 2 11 6 S 1017,2 20 0 0,0
21.06.2017 01:00:00 23,4 17,2 22,4 28,1 21,6 8 4 14 8 S 1017,3 20 0 0,0
21.06.2017 00:00:00 24,5 17,2 23,4 28,2 21,6 4 2 18 10 S 1017,3 20 0 0,0
20.06.2017 23:00:00 25,6 16,7 24,8 28,2 21,6 8 5 16 9 SSW 1017,3 20 0 0,0
20.06.2017 22:00:00 26,5 16,1 25,5 28,1 21,6 6 3 21 11 S 1016,7 20 0 0,0
20.06.2017 21:00:00 28,2 16,1 27,4 27,9 21,6 9 5 26 14 S 1016,3 20 0 0,0
20.06.2017 20:00:00 29,8 15,9 29,7 27,7 21,6 16 9 31 17 S 1015,8 20 50 0,0
20.06.2017 19:00:00 31,1 16,3 33,2 27,4 21,6 16 9 29 16 S 1015,5 20 55 0,0
20.06.2017 18:00:00 32,2 16,1 36,4 27,0 21,6 14 8 32 17 S 1015,6 20 60 0,0
20.06.2017 17:00:00 32,3 14,9 37,9 26,7 21,6 17 9 33 18 S 1016,1 20 60 0,0
20.06.2017 16:00:00 32,3 15,3 38,3 26,4 21,6 18 10 34 18 SSE 1016,6 20 60 0,0
20.06.2017 15:00:00 31,5 16,3 37,6 26,2 21,6 16 9 29 15 S 1017,4 20 60 0,0
20.06.2017 14:00:00 30,7 15,2 36,7 25,9 21,5 16 9 29 16 S 1018,0 20 60 0,0
20.06.2017 13:00:00 29,9 14,8 36,1 25,8 21,5 13 7 26 14 S 1018,7 20 60 0,0
20.06.2017 12:00:00 28,2 15,8 34,2 25,8 21,5 12 7 23 13 S 1019,2 20 60 0,0
20.06.2017 11:00:00 26,5 16,4 32,8 25,9 21,5 11 6 18 10 S 1019,6 20 60 0,0
20.06.2017 10:00:00 24,7 16,9 30,9 26,0 21,5 10 5 17 9 S 1019,7 20 60 0,0
20.06.2017 09:00:00 21,9 16,8 25,9 26,2 21,5 5 3 12 6 S 1019,8 20 60 0,0
20.06.2017 08:00:00 19,5 15,2 20,0 26,4 21,5 0 0 5 3 N 1019,8 20 60 0,0
20.06.2017 07:00:00 17,0 15,2 13,9 26,6 21,4 0 0 4 2 N 1019,9 20 35 0,0

tt = Température de l'air
td = dewpoint
tt 5cm = Température de l'air 5cm
tt -20cm = Température de l'air -20cm
tt -100cm = Température de l'air -100cm
ff = Vitesse du vent
fx = gusts
dd = Direction du vent
ppp = reduced air pressure
vv = visibility
sd = Ensoleillement
rr = Quantités de précipitations

stations d'obs. à proximité